Overview Statistics Trail Chart Weather Telemetry Raw packets
 

This is the latest recevied weather packets stored in our database for station/object KY0TEQ-13. If no packets are shown the sender has not sent any weather packets the latest 10 day(s).

<< 19 20 21 22 23 24 25 >>
Time Temp. Humidity Pressure Rain* Wind** Luminosity Snow
1788556100 26.67° C 30% 1307.6 hPa 0 mm - 673 W/m² -
1788555794 26.67° C 29% 1307.8 hPa 0 mm - 593 W/m² -
1788555491 26.11° C 30% 1307.9 hPa 0 mm - 706 W/m² -
1788555186 25.56° C 32% 1307.8 hPa 0 mm - 209 W/m² -
1788554883 25.56° C 32% 1308 hPa 0 mm - 174 W/m² -
1788554579 25.56° C 32% 1308.2 hPa 0 mm - 165 W/m² -
1788554275 25.56° C 30% 1308 hPa 0 mm - 362 W/m² -
1788553971 26.11° C 30% 1307.9 hPa 0 mm - 181 W/m² -
1788553666 26.11° C 31% 1308.2 hPa 0 mm - 724 W/m² -
1788553362 25.56° C 30% 1308.2 hPa 0 mm - 711 W/m² -
1788553063 25.56° C 31% 1308.3 hPa 0 mm - 709 W/m² -
1788552757 25.56° C 32% 1308.4 hPa 0 mm - 730 W/m² -
1788552452 25° C 34% 1308.5 hPa 0 mm - 344 W/m² -
1788552142 25° C 35% 1308.6 hPa 0 mm - 440 W/m² -
1788551840 25.56° C 34% 1308.8 hPa 0 mm - 553 W/m² -
1788551539 25° C 36% 1308.6 hPa 0 mm - 805 W/m² -
1788551235 23.89° C 37% 1308.9 hPa 0 mm - 812 W/m² -
1788550933 23.89° C 37% 1308.9 hPa 0 mm - 327 W/m² -
1788550629 23.89° C 37% 1309.1 hPa 0 mm - 264 W/m² -
1788550325 24.44° C 37% 1309.1 hPa 0 mm - 349 W/m² -
1788550025 24.44° C 36% 1309.3 hPa 0 mm - 789 W/m² -
1788549720 23.89° C 38% 1309.1 hPa 0 mm - 274 W/m² -
1788549417 23.89° C 38% 1309.1 hPa 0 mm - 245 W/m² -
1788549108 23.89° C 37% 1309.3 hPa 0 mm - 277 W/m² -
1788548803 23.89° C 37% 1309.1 hPa 0 mm - 294 W/m² -

* Rain latest hour (hover to see other rain measurements)
** Current wind speed in m/s (hover to see current wind gust speed)